Theta_e
343 341 341 338 339 339 336 333 333 333 333 331 332 333 337 337 335 340 341 353 351 352 355 356 356 356 357 355 355 355 354 352 351 350 348 348 348 348 348 349 349 348 347
344 344 338 337 338 337 336 330 333 332 332 334 333 334 338 341 341 339 341 345 350 350 352 355 357 357 358 358 355 355 354 352 352 351 349 348 347 348 348 348 349 348 348
345 344 340 340 340 337 335 333 330 333 334 333 331 336 341 340 342 342 343 343 345 350 351 353 355 356 357 359 358 356 354 352 352 351 349 348 347 347 348 348 348 348 348
347 346 343 340 341 340 337 335 332 336 334 333 332 334 337 341 343 343 345 344 342 344 350 352 353 354 356 358 359 358 355 352 351 349 349 348 348 347 347 347 348 347 347
345 347 344 341 340 338 339 336 334 335 332 331 331 332 338 340 342 345 343 342 344 344 343 349 351 351 353 355 359 359 357 352 349 349 349 349 349 348 347 347 347 347 346
345 345 345 343 342 340 338 337 333 332 330 331 332 333 339 340 341 340 341 345 345 344 345 344 347 347 350 352 355 358 359 356 352 350 349 347 348 348 348 348 347 347 346
346 345 345 344 343 339 338 337 334 331 331 331 329 328 331 338 339 342 344 343 341 341 342 342 345 345 346 349 350 353 358 359 356 353 348 346 346 348 348 348 347 346 346
350 346 344 344 341 342 339 336 337 334 333 334 328 325 320 324 335 340 338 338 338 343 344 343 342 349 350 346 347 349 354 357 359 356 350 346 346 348 348 347 347 346 345
350 350 347 346 346 341 342 340 338 335 331 333 330 326 322 318 326 333 334 336 339 338 341 342 346 346 345 344 347 348 349 350 356 358 354 348 347 348 348 348 347 346 345
351 348 350 349 347 345 344 345 342 339 335 331 332 332 331 327 322 322 332 334 335 337 337 339 342 344 343 341 346 349 347 346 351 354 355 353 351 350 349 348 347 346 346
341 349 349 345 339 338 342 344 341 342 340 335 334 332 330 330 329 321 319 327 331 336 336 336 338 341 341 340 340 340 337 338 341 344 347 350 352 352 351 350 349 347 346
332 339 330 328 334 331 336 341 342 342 341 338 335 333 332 329 327 323 318 319 325 328 333 334 335 337 339 338 342 341 335 334 333 332 336 340 345 348 350 350 351 351 350
327 326 336 337 335 335 338 340 337 337 341 338 336 334 336 332 328 326 322 319 318 321 323 328 331 337 338 338 338 340 339 332 329 327 329 332 335 338 341 344 347 348 350
330 331 330 336 334 330 331 332 326 323 330 339 336 336 336 334 334 328 326 321 315 318 322 324 328 331 331 331 335 335 332 329 327 326 326 326 328 330 333 335 337 340 342
330 330 331 329 335 337 330 330 326 322 331 331 338 337 336 333 332 332 329 323 320 314 317 322 323 327 328 328 329 328 331 334 331 326 324 324 324 325 327 328 329 332 333
320 320 318 318 327 325 325 328 327 327 324 332 338 337 332 332 332 334 331 328 327 321 317 322 324 325 326 329 332 334 333 332 329 327 326 325 323 323 324 324 325 326 329
318 318 317 316 315 317 322 317 317 319 322 332 330 326 325 325 324 327 333 331 327 324 320 321 324 325 328 329 331 332 334 334 334 327 326 325 322 320 321 321 322 323 325
317 316 316 315 316 316 316 317 323 323 328 324 322 319 323 327 323 320 323 330 328 325 322 318 319 323 325 327 328 329 332 337 336 333 326 324 321 319 319 318 318 318 320
316 315 315 313 314 316 316 315 316 318 320 321 321 321 323 321 325 328 328 328 327 327 324 320 318 319 323 324 323 328 328 329 332 333 326 323 322 320 319 318 317 317 316
316 314 313 314 317 317 318 317 315 313 316 324 324 324 325 323 328 329 331 328 326 323 321 319 315 314 317 319 321 323 322 324 326 332 331 327 324 324 320 319 317 318 316
315 315 314 312 314 316 319 313 314 313 312 322 320 321 322 321 327 328 331 326 321 318 316 314 312 312 314 314 317 318 317 320 322 325 326 326 328 329 326 320 322 321 318
311 312 312 312 313 317 311 308 312 314 320 322 322 326 329 324 321 317 315 313 314 310 307 305 304 303 305 309 311 312 314 314 314 322 323 322 326 328 331 328 319 315 311
305 309 310 311 312 315 308 307 308 313 316 320 317 315 317 317 312 308 307 308 307 308 309 308 306 308 309 312 313 311 311 313 315 320 322 321 325 322 327 333 315 313 310
303 305 308 312 312 315 307 306 305 310 316 321 317 315 313 309 309 307 306 307 308 308 307 309 309 310 312 314 315 316 314 314 315 318 323 320 322 321 325 326 315 312 310
301 304 307 309 311 313 304 302 304 312 313 316 317 316 316 312 305 306 309 308 309 311 312 307 305 304 305 302 302 304 304 305 307 310 319 319 320 320 325 322 321 313 310
302 305 305 305 308 313 304 300 303 312 309 312 316 316 311 313 303 304 312 310 308 309 312 312 311 308 306 308 305 306 307 307 309 310 317 317 316 316 318 324 320 315 313
Wind_Speed
6 4 7 7 7 5 7 6 6 7 7 9 8 9 7 8 6 4 4 15 13 13 13 14 14 13 13 12 13 14 13 12 12 11 10 10 10 9 10 10 10 10 11
7 6 8 8 8 8 9 9 9 8 7 6 8 7 8 6 7 7 6 6 14 14 14 13 14 14 14 14 14 14 14 13 13 12 13 12 11 11 12 12 11 11 11
8 8 6 8 8 9 11 8 8 7 6 6 7 6 7 7 6 7 6 7 8 14 15 14 15 15 15 15 16 16 15 15 14 13 13 13 13 13 13 13 13 13 13
10 11 6 9 7 8 8 9 9 7 7 6 5 6 5 5 7 7 6 5 5 5 11 15 15 14 15 16 16 17 17 15 15 15 15 14 14 14 13 14 15 15 14
15 11 9 8 9 6 6 7 10 11 10 8 8 7 6 5 7 6 8 6 6 6 5 13 16 15 14 15 17 18 18 16 16 16 16 16 15 15 15 17 17 17 15
16 13 10 11 11 9 9 5 5 4 5 8 8 8 9 8 5 5 5 4 5 6 5 6 7 9 16 15 15 17 19 18 17 16 16 15 15 17 18 18 17 16 16
17 18 13 12 10 11 13 9 5 7 7 4 3 3 3 5 5 5 5 4 5 6 6 6 4 4 6 17 16 17 18 19 18 17 16 16 16 17 18 17 16 16 15
16 15 15 11 11 10 12 12 12 9 7 4 5 3 2 5 3 6 4 6 7 5 7 8 7 6 5 2 9 18 17 18 18 18 18 15 15 17 16 16 16 15 15
12 15 15 14 13 13 10 14 13 14 10 5 7 7 3 6 1 2 6 3 5 4 4 4 5 5 5 3 5 8 14 16 18 17 17 16 17 17 16 17 17 15 18
16 14 19 19 14 6 14 12 10 12 11 11 4 9 2 5 5 1 2 5 5 5 5 4 5 5 5 4 6 6 8 13 16 17 17 17 17 16 17 18 18 18 18
9 11 13 9 2 8 11 17 11 14 12 12 11 11 11 2 1 4 3 5 1 5 5 5 5 5 6 6 5 5 5 6 10 9 12 13 15 15 16 18 15 17 18
5 6 9 10 10 12 15 17 13 15 15 14 11 11 10 10 6 3 3 3 6 5 5 5 5 5 5 5 6 9 9 11 9 12 15 12 11 15 14 18 16 17 19
8 7 6 8 10 22 21 11 9 14 18 11 14 11 10 10 4 5 4 4 4 4 4 4 6 5 5 5 5 8 8 9 9 9 12 13 11 12 13 15 16 16 18
9 10 4 5 11 16 14 9 7 8 20 17 11 12 9 9 9 5 6 6 1 4 4 6 3 5 5 5 6 7 5 9 9 13 13 10 12 11 12 13 15 15 15
9 12 13 7 8 13 11 14 14 15 18 16 22 14 12 6 6 6 5 5 7 5 6 4 4 5 5 4 6 5 5 8 10 9 10 12 12 13 13 13 14 16 15
11 10 7 9 8 4 10 13 14 19 16 15 13 15 4 2 7 9 4 5 5 6 4 5 5 5 5 4 4 4 5 9 10 11 12 13 12 14 14 15 14 15 15
7 11 9 4 4 7 5 11 10 13 15 11 3 5 5 1 1 8 12 5 4 4 5 3 2 2 3 5 3 4 5 6 6 13 12 13 13 13 13 14 15 15 14
6 7 9 11 7 3 6 3 10 15 17 8 10 13 7 2 5 8 16 16 5 5 5 5 1 3 1 3 4 5 5 6 7 9 11 12 12 12 14 14 13 12 11
7 8 10 12 14 9 4 7 4 4 14 13 11 12 14 11 17 15 21 11 4 4 4 4 3 3 3 2 6 6 6 6 4 8 10 13 13 12 13 13 12 12 14
7 7 7 8 8 7 7 8 7 9 12 16 11 13 16 18 19 17 13 7 4 4 4 4 4 4 2 3 4 5 5 3 4 3 7 8 9 9 8 7 8 10 10
8 7 9 8 7 7 6 8 12 17 22 21 13 18 23 22 23 16 8 6 6 4 4 4 2 2 2 2 3 2 2 3 3 4 4 3 2 3 3 6 5 8 7
7 7 8 9 8 8 10 9 14 21 26 22 24 24 17 21 15 17 14 12 10 7 5 5 3 3 2 2 1 0 1 3 3 2 2 4 2 3 3 4 6 7 9
5 7 8 8 8 10 9 6 9 15 9 18 15 15 11 9 13 12 12 12 9 11 9 7 5 4 3 4 3 0 3 4 4 4 2 8 2 3 3 3 9 10 8
6 7 7 10 8 9 11 10 4 14 10 12 6 10 11 9 11 12 9 8 6 5 6 4 5 7 5 4 3 3 3 4 4 4 4 7 3 4 2 1 5 11 14
7 6 6 7 7 11 13 11 5 10 8 7 8 8 10 10 13 16 10 7 5 3 6 12 10 6 5 6 6 1 4 2 4 3 4 4 4 2 1 1 3 6 10
8 5 7 3 7 10 14 14 11 8 6 3 1 7 13 11 16 15 11 8 7 6 3 3 3 1 3 6 9 7 4 5 3 3 3 3 2 2 3 2 2 4 5
Wind_Direction
191 192 185 181 186 205 199 202 217 223 224 217 207 212 216 218 210 169 173 194 195 199 196 196 196 202 210 210 212 210 208 202 207 199 199 205 203 206 223 217 219 218 214
205 203 184 188 197 193 198 200 206 207 213 212 235 214 224 214 203 197 173 196 204 203 205 204 207 206 211 209 211 210 209 207 209 202 199 203 207 211 215 227 217 225 222
191 200 199 198 201 201 200 198 210 203 207 207 209 225 226 213 218 204 198 177 205 204 204 200 214 210 213 210 210 206 209 206 210 208 209 201 205 213 218 218 222 216 223
195 203 202 210 197 201 205 206 208 208 194 193 202 228 225 224 233 224 204 198 189 196 206 207 205 214 212 212 212 211 209 208 211 208 209 206 203 212 220 222 222 222 220
204 199 200 205 205 200 201 195 201 198 193 199 207 210 212 223 226 237 220 192 205 182 185 208 203 204 217 216 213 215 214 208 211 214 212 208 204 209 216 221 222 224 222
206 207 209 204 200 209 216 216 197 201 180 204 213 217 217 207 204 214 207 224 201 243 236 208 198 204 202 213 220 220 219 218 213 219 215 214 208 210 216 222 223 226 226
205 209 213 216 204 214 217 219 213 206 224 177 96 289 270 228 207 202 201 209 216 225 214 213 206 191 223 195 202 219 224 226 216 216 225 217 215 215 220 222 225 226 227
205 211 213 220 211 212 221 216 214 223 226 184 188 77 268 325 269 222 196 209 219 210 213 209 200 201 202 246 206 211 215 228 231 223 223 221 223 225 227 225 227 224 224
218 201 216 219 203 212 220 220 210 213 221 215 204 158 164 218 144 279 235 206 215 212 232 216 200 209 183 201 226 227 220 224 230 230 228 221 219 224 226 227 227 218 221
249 221 216 215 218 182 220 225 214 211 215 218 216 221 236 145 180 214 275 223 222 217 212 208 191 185 154 175 213 218 220 227 228 230 230 231 226 227 227 230 228 217 222
320 275 250 311 221 238 257 252 224 211 206 213 209 208 223 199 159 128 192 232 261 233 213 209 197 195 195 204 213 248 293 268 256 259 251 234 234 230 236 238 232 218 220
278 259 250 210 170 267 268 261 254 236 225 223 217 218 213 208 209 162 138 208 203 234 208 216 215 216 208 208 219 206 215 244 225 245 249 245 243 238 237 243 243 221 219
296 293 287 247 237 223 244 261 291 292 252 230 225 218 224 220 198 186 148 202 179 237 210 229 212 205 205 211 230 241 225 208 236 250 242 245 244 245 246 255 250 238 222
297 307 296 227 213 218 233 226 244 288 309 238 237 224 220 216 203 171 171 146 260 242 227 212 211 193 204 210 216 251 281 290 278 249 240 232 250 245 246 248 249 242 232
319 329 325 298 235 231 188 208 224 230 224 245 250 218 224 230 227 190 179 151 166 196 230 243 183 227 224 202 223 233 249 267 273 255 259 257 235 235 245 249 246 243 240
328 331 12 10 8 242 218 205 204 219 223 234 239 236 177 2 330 313 259 193 181 181 202 195 224 196 219 265 248 227 257 254 258 263 261 258 258 252 250 247 244 240 239
314 324 332 348 65 51 307 292 262 233 225 247 219 58 358 235 312 312 281 280 225 157 180 265 205 187 188 204 229 251 244 248 254 244 241 248 252 253 248 241 240 241 238
292 299 311 309 296 187 181 266 306 254 245 177 180 157 211 245 233 251 274 251 207 163 140 202 267 288 296 3 273 264 269 250 236 238 237 249 255 256 253 246 241 237 228
268 291 306 307 303 291 248 217 206 310 307 239 205 191 172 195 237 203 234 227 218 155 147 133 175 216 187 163 303 265 255 259 252 249 253 263 269 274 265 250 238 224 218
255 256 261 281 282 293 307 313 261 261 310 252 212 193 194 202 217 221 217 208 205 147 148 153 190 218 186 232 216 270 290 271 275 279 261 256 275 280 269 281 264 244 232
261 252 274 275 270 281 295 309 321 292 309 228 201 223 211 209 214 205 183 192 179 149 145 153 163 137 163 135 155 211 255 286 295 247 267 278 255 260 240 238 277 259 205
253 249 255 267 274 276 275 341 336 313 254 192 189 204 193 189 160 154 147 157 154 148 151 153 156 153 201 180 210 169 336 326 307 312 358 304 223 280 241 217 193 201 176
284 267 252 261 255 259 259 278 310 295 23 2 147 135 125 143 139 137 146 137 139 143 143 153 149 172 178 204 173 241 224 240 243 274 335 286 225 255 270 209 181 181 170
260 273 261 256 231 250 238 262 252 272 302 166 139 143 130 152 155 144 139 141 153 159 166 159 166 201 201 223 193 206 218 246 272 270 239 272 241 236 200 90 180 194 167
255 246 264 280 235 253 223 225 239 272 284 162 159 145 141 158 162 139 134 154 162 217 200 189 196 182 195 238 220 136 271 246 279 238 232 228 244 237 209 152 82 138 132
246 238 254 266 300 264 219 200 214 254 253 79 216 143 141 154 166 150 149 162 157 196 135 89 81 98 234 273 267 197 211 220 221 312 286 170 165 51 357 66 109 113 112